CZ-6A DEB, 54638

Orbit data source: Space-Track

CZ-6A DEB, 54638 is space debris in SSO originally from a launch on Fri, 11 Nov 2022 UTC launched from the Taiyaun Space Center, China (TSC). Debris objects in space refer to the collection of defunct objects orbiting the Earth. Examples of debris include non-operational satellites, rocket bodies, and fragments generated from explosions, collisions, or faulty payload assembly.

Loading next visibility...
Identifier
54638, 2022-151PQ
Orbit
SSO
Country
Flag of CNCN / PRC
Related business
Manufacturer
SAST
Mission
Spacecraft
Bus & Motor
Unknown
Mass
Unknown
Launch date (UTC)
2022-11-11 (4 years ago)
Launch vehicle
Unknown
Launch site
Taiyaun Space Center, China (TSC)
Object type
Payload
Rocket body
Debris
Shape & HBR
Unknown shape, 0.1 m
Radar Cross Section
Medium (>0.1 m² and <1 m²)

Expand to show TLE details & history
Last TLE update: 2 days ago

TLE from 2 days ago
0 CZ-6A DEB
1 54638U 22151PQ  26171.19573316  .00018101  00000-0  19796-2 0  9994
2 54638  98.6308 251.4710 0056899 231.3914 128.2197 14.86706591191099
Epoch: 2026-06-20T04:41Z
TLE epoch observation values (Epoch: 2026-06-20T04:41:51.345Z)
Latitude
0.00002°
Longitude
-87.40678°
Altitude
635.98 km
Speed
7.527 km/s
True Right ascension
16h 45m 53s
True Declination
0° 00' 00"
Sunlit
Object was in full shadow at epoch
Visualization orbit readout
Latitude
Unknown
Longitude
Unknown
Altitude
Unknown
Speed
Unknown
Apparent Right ascension
Unknown
Apparent Declination
Unknown
Sunlit
N/A
Visualization observer readout
Local Sidereal Time
21:33:44
Azimuth
Unknown
Elevation
Unknown
Doppler factor
Unknown
Orbital elements
Apogee altitude
645.035 km
Perigee altitude
565.565 km
Semi-major axis
6,983.437 km
Eccentricity
0.00569
Inclination
98.6308°
RAAN
251.471°
Arg. of periapsis
231.3914°
True anomaly
128.7297°
Mean anomaly
128.2197°
Eccentric anomaly
128.47492°
Mean motion
3.71911 °/min
Orbital period
96.8 mins
BSTAR
0.0019796
Loading maneuver chart data...
Computing Atmospheric mass density...
Loading historical data...
Loading historical data...
Loading historical data...
Loading historical data...
Loading historical data...
Loading historical data...
Loading historical data...

Documentation

Showing up to 5 results
|